GFSCGP_sfc_dewp_000.txt.gz
Dewpoint
25 23 24 26 27 23 24 22 23 25 24 26 28 31 29 29 29 31 34 36 39 41 44 48 51 53 55 59 61 63 63 65 64 61 64 65 64 67 66 66 64 63 62 62
19 25 24 24 24 22 22 23 23 23 22 22 24 26 28 29 31 32 31 33 38 42 43 47 52 54 56 58 61 62 63 64 64 64 66 65 66 66 65 66 65 63 62 63
15 20 22 23 22 20 24 24 24 23 23 24 25 27 29 28 29 28 30 34 37 43 44 48 50 54 55 57 60 61 63 63 64 66 66 65 65 65 66 65 64 63 62 63
12 14 20 22 20 22 24 23 23 24 23 21 25 25 30 27 28 26 25 33 36 43 45 47 50 54 55 54 58 61 62 63 63 65 65 65 64 63 65 65 65 63 62 62
11 14 16 23 21 21 22 22 23 23 24 24 24 25 24 27 26 25 24 28 38 43 45 46 49 52 52 54 57 61 62 63 64 65 65 64 65 65 66 65 64 64 63 63
10 11 17 19 21 21 21 22 23 23 22 25 25 24 23 24 22 22 21 25 37 41 44 47 50 52 51 52 55 60 62 62 64 64 64 65 63 64 64 62 63 64 64 63
12 8 12 18 19 21 21 26 22 26 23 25 24 23 27 28 23 20 21 28 40 43 44 47 49 49 50 51 54 57 60 60 61 62 62 63 64 63 64 63 62 63 63 63
13 10 11 16 19 19 22 28 20 28 23 21 25 24 22 23 23 23 24 31 42 43 45 47 48 49 48 50 53 55 58 58 59 60 62 64 64 64 64 62 62 63 63 63
16 12 12 13 18 21 23 22 22 23 22 19 20 25 28 27 22 24 27 38 45 45 47 47 48 49 50 52 54 57 58 58 59 59 62 62 64 64 65 65 64 62 64 64
23 21 16 13 19 23 25 21 21 20 24 27 20 22 22 26 25 30 35 40 47 46 45 46 47 50 50 52 55 58 58 57 58 59 61 60 62 64 64 66 65 63 63 64
25 30 22 19 22 22 22 20 23 25 21 24 25 22 29 31 34 40 38 43 46 45 43 45 46 49 48 50 50 57 57 55 57 58 59 61 61 62 63 63 63 61 62 62
26 30 27 21 20 23 24 23 27 23 29 24 22 24 32 34 32 37 40 42 43 43 43 43 45 48 44 48 50 53 57 52 54 55 57 60 62 63 63 63 64 62 62 63
28 29 29 26 24 26 25 24 25 33 36 31 21 23 33 31 31 33 42 41 41 43 42 43 44 46 41 45 48 49 53 51 49 51 55 59 63 63 63 63 63 62 62 62
37 33 31 27 25 27 28 25 21 27 29 24 23 23 30 30 30 32 41 42 40 42 43 42 44 46 40 44 45 47 51 49 48 48 54 58 62 62 63 62 63 63 62 61
37 30 32 26 23 21 22 21 21 23 26 24 26 24 26 32 33 33 41 42 39 39 40 43 45 46 41 45 46 46 48 48 48 46 53 58 61 63 62 61 61 62 62 62
40 32 32 23 22 21 20 21 21 21 20 24 25 27 30 32 32 32 39 40 38 39 39 41 45 45 41 45 45 47 49 47 46 48 50 54 55 58 61 62 60 60 59 61
39 33 32 29 23 21 23 22 22 23 23 24 24 29 30 28 28 32 42 41 41 40 40 41 45 46 44 45 48 49 49 46 46 46 46 50 53 54 60 59 59 59 61 62
41 37 32 30 29 25 23 25 22 25 25 25 25 28 30 30 32 28 32 40 41 42 42 43 46 49 48 46 47 50 48 46 43 45 43 46 48 52 56 58 60 62 62 62
39 37 32 33 31 24 19 21 24 27 28 29 25 26 26 28 30 34 32 34 43 45 46 45 48 51 50 48 48 48 48 45 42 42 43 41 45 52 55 58 61 63 64 62
35 39 35 34 32 28 26 22 21 26 26 31 31 33 32 30 25 27 37 34 43 45 47 47 49 50 50 50 50 50 48 47 43 41 43 40 41 52 55 61 62 63 64 63
32 33 33 32 37 26 25 21 25 26 30 36 35 37 37 36 36 47 45 41 46 46 47 49 50 50 52 51 51 50 48 48 45 41 43 44 47 54 59 63 63 63 63 61
30 31 33 35 33 26 26 24 26 42 51 44 39 39 40 41 41 42 41 42 44 44 44 47 49 51 53 51 51 50 50 50 46 42 42 46 54 46 55 62 61 61 62 63
36 37 35 34 33 45 39 42 48 46 42 36 40 39 39 37 37 36 41 45 44 45 45 45 48 53 54 52 50 50 52 50 46 45 48 51 51 51 57 60 60 58 61 59
38 40 37 37 38 34 34 37 40 39 39 39 39 40 38 38 37 37 37 44 43 44 45 46 48 52 54 53 51 52 51 49 46 49 52 53 51 52 56 56 58 55 55 54
31 38 39 39 38 36 35 38 35 35 37 37 37 35 39 39 39 39 39 44 42 44 45 47 47 52 54 54 52 52 51 48 49 52 52 53 51 52 56 55 56 54 56 52
30 33 36 37 40 41 40 44 43 39 40 41 38 39 40 39 40 40 41 44 44 44 46 49 51 52 52 53 53 52 50 49 52 53 50 50 49 49 51 52 54 42 44 42

GFSCGP_sfc_dewp_006.txt.gz
Dewpoint
30 27 22 22 22 23 26 25 25 25 26 28 28 28 28 30 31 28 30 32 36 38 45 48 51 49 50 53 54 54 55 56 57 56 57 57 57 59 60 61 61 61 59 59
25 18 19 22 24 23 23 25 24 25 25 26 25 26 28 30 32 30 31 32 35 43 46 49 50 50 50 53 55 56 55 56 57 56 59 58 58 59 60 60 61 61 61 61
17 23 22 20 21 23 22 22 26 25 26 26 26 26 28 30 34 33 32 34 41 43 45 48 50 49 50 53 55 56 56 57 55 57 58 58 58 59 59 60 61 59 60 61
15 18 21 19 17 22 21 24 24 28 28 25 26 23 26 26 27 28 29 31 41 41 44 47 49 49 49 50 53 56 56 54 55 56 56 56 57 56 57 58 59 59 59 59
15 13 14 14 15 21 22 23 25 27 27 25 23 21 23 27 26 27 30 36 40 40 44 47 49 49 49 53 53 56 54 56 56 55 56 58 56 58 58 57 57 58 59 60
14 17 13 12 17 21 24 25 25 25 25 23 23 23 23 25 26 28 31 38 39 43 45 49 50 49 50 51 54 54 52 54 56 56 56 57 56 56 56 56 57 57 58 60
15 14 14 14 14 17 23 23 22 23 22 23 25 25 26 29 31 29 25 35 41 44 48 50 50 49 49 51 52 53 53 54 54 55 57 56 57 56 55 55 57 56 56 57
14 13 14 15 14 11 12 14 22 19 21 20 24 20 22 28 29 31 33 39 43 45 48 49 50 48 48 50 52 52 52 50 51 54 56 56 58 57 56 57 57 57 56 57
14 14 19 15 14 14 12 16 16 21 25 19 22 24 30 30 31 38 40 41 43 45 48 49 49 48 46 50 51 50 53 51 49 53 57 57 58 58 57 57 57 57 57 58
20 18 18 16 14 13 11 17 17 22 19 19 22 23 25 26 31 39 40 41 43 45 48 49 48 47 46 49 48 47 53 50 52 53 54 58 59 59 59 57 57 57 57 58
17 22 23 16 14 9 10 13 22 22 23 21 19 21 29 24 29 39 39 41 43 45 47 48 47 47 46 47 45 48 52 49 51 52 53 58 59 59 60 59 57 58 58 58
17 19 17 17 19 13 10 11 22 19 20 22 22 19 30 29 33 38 39 41 43 45 46 47 47 48 47 46 46 49 50 50 49 51 51 56 59 59 59 59 58 58 58 59
24 17 20 25 19 22 11 18 22 23 26 23 18 21 31 37 38 40 41 42 43 45 46 46 47 47 47 46 47 47 51 49 49 51 50 58 58 58 59 59 59 59 59 59
35 21 16 17 19 21 18 14 23 23 22 23 20 24 28 39 40 42 42 42 42 44 45 45 46 45 46 47 47 47 50 48 50 49 52 57 57 57 58 59 59 59 59 59
29 24 18 16 20 25 21 15 23 20 22 20 24 25 27 35 40 42 43 42 41 43 44 45 46 44 44 47 47 48 49 46 50 49 53 56 56 57 58 59 58 58 59 59
30 31 20 17 16 16 17 21 22 22 25 25 25 27 31 34 40 42 42 41 40 41 43 45 45 44 43 45 47 48 48 45 50 49 50 55 56 57 57 58 57 58 58 58
29 33 27 19 19 17 16 19 23 23 26 26 22 23 30 31 39 41 41 40 40 40 42 44 45 44 43 43 46 47 48 46 50 49 50 51 51 56 56 57 56 57 54 55
28 29 29 20 21 22 25 26 25 23 24 26 25 25 31 29 33 41 41 40 39 40 42 44 45 45 43 43 45 47 46 45 49 49 50 49 51 55 53 54 56 55 54 54
27 29 31 24 21 24 28 29 25 25 25 28 24 25 25 32 39 41 41 40 39 40 41 44 45 44 43 43 45 46 43 43 48 48 49 48 51 56 55 54 55 55 54 53
29 30 36 33 22 22 28 29 28 28 24 29 28 28 26 38 38 40 41 40 40 40 41 44 45 43 43 43 45 46 41 40 45 47 48 47 50 55 56 53 55 55 54 53
37 37 32 33 28 31 40 42 35 25 28 35 30 30 29 30 37 40 42 42 41 40 41 44 46 43 42 43 46 45 41 38 41 44 47 47 50 53 57 56 57 57 56 54
35 34 34 34 30 32 40 41 38 41 45 43 33 33 34 32 34 36 39 43 44 41 42 46 46 43 43 44 45 46 41 39 39 43 43 46 50 51 58 57 57 57 57 55
34 38 35 37 39 38 42 39 38 37 38 46 46 39 35 35 35 42 40 42 44 43 44 46 45 43 44 44 44 45 44 41 40 42 40 43 49 52 58 57 57 57 57 56
37 39 37 35 41 35 37 36 38 37 35 41 45 46 37 35 37 40 43 43 44 44 45 46 44 43 45 44 44 44 48 43 41 42 40 40 49 56 58 57 57 57 57 56
37 38 37 35 36 36 37 37 38 37 36 35 43 46 44 35 35 41 44 43 45 46 46 46 46 45 45 45 44 45 48 46 43 43 42 42 48 56 58 58 57 56 56 55
39 36 35 35 36 37 36 37 39 37 37 36 36 45 45 46 35 42 44 43 46 46 46 47 48 47 46 46 45 46 47 47 45 46 45 43 49 55 57 56 51 40 46 46

GFSCGP_sfc_dewp_009.txt.gz
Dewpoint
27 27 26 25 23 21 18 19 18 20 25 26 27 28 29 29 29 29 31 32 33 36 41 46 47 47 51 52 53 54 54 54 57 56 55 56 56 57 58 60 61 60 60 59
24 21 27 29 26 23 23 23 24 26 27 26 25 25 27 28 28 28 29 32 33 42 46 48 47 47 50 53 54 54 54 56 56 55 57 57 56 58 58 59 61 62 61 60
13 16 27 30 25 25 23 22 22 23 27 27 27 27 27 27 31 33 33 33 37 40 45 48 47 48 51 53 54 55 55 56 56 56 57 57 57 58 57 58 58 59 59 60
15 15 20 24 23 20 21 24 23 23 25 24 29 24 26 27 28 28 27 29 32 41 46 47 47 48 51 52 55 56 56 55 54 57 55 55 55 55 56 56 57 58 59 59
12 13 13 20 18 20 21 24 25 27 26 25 25 25 25 27 27 27 27 28 33 42 45 47 48 48 50 52 55 55 55 54 55 56 55 57 54 56 56 56 56 56 57 59
5 16 14 16 21 21 20 24 25 24 25 23 24 25 24 25 26 26 29 30 40 42 46 49 48 49 49 52 54 54 53 55 55 55 55 56 55 55 55 55 55 56 56 58
16 10 15 16 18 19 18 23 21 21 23 23 24 24 24 27 29 28 29 33 41 45 49 48 47 48 50 51 54 52 52 54 55 56 57 55 56 55 54 54 55 54 55 56
15 14 13 16 13 13 15 20 24 20 20 21 25 23 24 28 29 32 31 34 43 46 49 48 47 48 49 51 52 53 52 52 52 54 56 55 56 55 55 57 56 55 55 56
15 14 19 14 15 12 13 19 23 19 25 20 23 25 27 30 32 37 38 40 43 46 48 49 48 48 49 51 51 52 51 50 50 54 56 56 57 55 56 56 56 56 56 57
20 15 16 16 15 15 14 16 13 16 14 17 22 23 24 25 32 38 39 39 43 47 48 49 48 47 49 50 50 51 52 51 49 53 56 57 58 57 56 56 56 56 56 57
19 20 20 19 16 13 14 12 18 19 22 21 20 22 28 25 32 36 38 40 43 46 48 48 48 47 47 49 48 48 52 50 50 53 53 57 58 58 57 57 57 57 56 57
31 18 15 17 19 16 14 12 12 13 18 22 22 21 28 26 30 37 38 40 43 46 48 48 47 46 46 47 45 47 51 49 51 52 52 57 58 59 58 57 56 56 57 57
31 26 17 16 19 20 13 11 11 16 24 21 20 20 31 33 28 38 38 41 44 46 47 47 46 46 45 45 45 49 50 49 49 50 54 58 58 58 57 57 57 58 57 58
32 32 22 15 15 19 18 12 11 15 15 16 20 19 28 37 35 39 39 42 44 45 47 46 46 46 45 45 45 48 50 49 49 50 56 57 57 58 58 57 58 58 58 58
29 27 30 25 16 19 21 18 12 14 13 16 18 20 23 36 38 38 41 42 43 45 45 46 46 46 46 45 46 47 50 48 50 49 56 56 56 57 58 58 58 58 58 59
30 25 31 28 19 15 14 20 16 18 17 21 23 23 25 33 41 42 42 41 42 44 45 45 45 45 45 45 46 47 49 47 50 50 55 56 56 57 58 56 57 58 58 58
30 29 24 27 22 17 16 15 16 22 23 22 22 23 30 35 40 41 42 41 41 43 44 45 45 45 45 46 46 47 49 48 49 49 53 55 55 57 57 56 57 56 55 56
28 26 26 26 24 16 18 20 17 19 25 25 24 25 30 34 39 41 43 41 41 42 44 45 45 45 44 45 47 47 47 49 49 48 52 52 54 55 56 55 56 53 54 54
31 28 25 28 23 22 24 29 20 22 24 28 23 26 29 32 38 40 43 42 41 42 44 45 46 46 44 44 47 47 45 48 48 48 50 49 55 53 54 54 54 53 52 52
33 30 26 32 22 18 35 38 40 40 23 42 44 31 30 35 31 35 43 42 41 41 43 44 46 46 44 44 46 46 44 47 47 47 49 48 55 54 54 55 54 52 52 52
33 29 26 28 28 34 37 38 38 25 30 39 43 45 32 32 30 33 42 42 41 41 42 44 46 45 43 44 45 45 42 45 47 48 48 48 54 55 54 55 54 53 52 51
33 33 33 33 31 31 36 36 34 36 37 36 37 43 40 34 35 40 42 41 41 41 43 44 45 44 43 44 45 45 42 42 46 47 47 47 51 55 55 54 55 54 53 51
32 34 34 36 37 37 37 37 38 38 37 36 36 37 45 42 33 40 42 41 41 41 42 44 45 43 43 44 44 44 43 40 43 45 47 46 49 52 56 54 55 55 53 51
36 38 37 36 39 36 35 36 36 36 36 37 37 38 45 41 35 37 41 42 42 41 42 45 45 43 43 44 44 44 43 39 41 43 44 46 48 52 56 55 55 55 55 54
36 37 35 35 38 36 38 34 35 36 36 37 37 38 43 47 46 40 39 42 43 42 42 45 44 43 43 44 44 45 44 40 40 41 41 43 47 51 56 56 55 55 56 54
38 35 34 34 36 35 36 37 36 37 36 38 38 40 41 42 49 46 42 42 44 43 44 45 44 43 44 44 44 45 46 42 41 41 41 41 46 52 54 56 53 41 44 46

GFSCGP_sfc_dewp_015.txt.gz
Dewpoint
17 17 19 19 21 21 22 23 23 23 20 18 18 21 27 29 29 30 33 35 39 41 43 44 46 50 53 55 57 59 60 61 60 58 57 58 59 61 61 62 64 64 64 64
16 15 17 20 19 18 18 20 21 21 19 20 21 22 27 30 30 29 32 35 37 39 41 45 49 51 54 56 57 59 60 61 60 59 60 60 61 62 62 63 64 64 64 65
14 13 14 17 19 18 18 17 18 18 19 23 25 23 23 23 31 31 31 35 39 40 42 46 48 51 54 55 57 58 60 61 61 61 61 62 63 62 61 62 63 63 63 63
12 12 12 13 16 19 19 20 18 17 19 17 24 19 25 26 26 28 30 36 37 38 43 48 49 52 54 55 57 59 60 61 61 62 61 62 60 60 61 62 62 63 62 62
12 10 12 12 14 20 19 20 22 22 22 23 22 23 22 28 26 26 27 33 38 38 42 48 49 52 53 55 57 59 61 61 62 62 62 61 62 61 62 62 62 63 63 62
14 12 11 13 17 22 23 22 24 27 24 22 22 23 20 22 24 25 31 33 37 43 47 49 51 52 54 55 57 59 60 61 61 61 62 63 62 61 60 61 61 61 62 63
14 11 10 11 15 21 25 25 19 20 20 20 23 22 24 26 25 27 29 33 40 47 48 49 50 50 53 55 57 58 59 59 60 60 61 62 61 61 60 60 61 61 61 62
16 12 10 13 14 19 25 24 17 17 19 16 24 19 21 28 28 30 32 36 41 48 48 49 49 51 53 55 57 57 58 58 59 60 61 61 62 59 59 60 61 61 61 61
20 16 15 13 15 24 25 22 23 20 25 20 24 27 32 32 32 34 34 38 44 48 49 49 50 52 53 55 57 58 58 58 59 59 61 61 62 60 60 62 62 61 62 61
27 20 17 11 13 15 20 23 20 19 16 15 18 24 23 28 30 32 37 40 45 49 49 48 49 52 53 55 57 58 57 57 58 57 60 60 61 60 61 61 61 61 62 62
30 25 19 12 14 11 16 21 21 21 18 14 12 14 33 33 32 34 36 41 45 48 48 48 49 51 52 55 55 57 56 56 55 57 60 61 61 61 61 61 61 61 62 62
32 32 21 15 14 15 15 19 22 14 20 17 19 15 31 35 34 35 36 41 45 48 48 48 48 50 52 53 55 55 56 55 54 57 58 60 62 62 61 61 61 61 61 61
36 30 20 19 19 17 16 17 21 24 26 20 12 16 31 37 34 34 38 41 45 48 48 48 48 49 50 52 53 52 55 55 53 56 57 61 62 62 62 61 61 61 62 62
37 28 28 16 19 21 17 16 17 21 17 17 17 14 21 25 33 35 40 43 45 48 49 48 48 49 50 51 51 51 52 54 54 54 57 61 62 61 61 61 62 61 62 61
35 28 27 26 25 26 20 15 15 17 17 17 19 17 19 24 30 34 40 44 45 46 48 48 48 49 50 51 51 50 50 53 54 55 58 60 61 61 60 61 61 62 62 61
34 28 27 22 23 24 23 23 17 15 16 17 17 20 23 26 29 37 41 43 44 45 46 48 48 49 50 50 49 50 52 53 54 56 57 59 60 59 60 61 61 62 61 62
33 30 26 21 24 24 22 22 22 19 18 17 14 20 21 24 31 36 41 43 43 46 47 48 49 50 50 50 50 50 52 53 53 55 57 58 59 58 59 60 61 61 62 62
29 30 28 23 27 19 25 34 24 23 25 28 21 21 30 31 34 27 36 42 44 46 48 49 49 51 52 50 50 50 52 52 51 53 56 57 57 57 59 60 60 61 62 62
31 34 29 25 26 26 33 34 34 31 31 37 37 37 38 40 41 35 40 42 45 49 49 50 50 52 52 51 50 50 50 51 50 51 55 56 57 57 59 59 60 61 61 61
35 36 31 28 27 20 33 34 36 39 31 36 37 38 39 39 26 25 44 45 45 48 50 50 51 52 52 52 52 51 50 50 50 49 53 55 56 58 58 60 59 60 61 60
35 35 31 29 29 33 36 33 35 33 30 38 38 39 39 39 41 44 44 45 47 48 50 51 51 51 53 53 52 50 50 50 50 49 52 55 57 60 59 61 59 59 59 59
33 32 32 30 27 31 38 32 32 35 38 38 38 39 40 41 42 43 44 47 47 47 48 50 50 51 53 52 52 50 51 51 50 50 50 54 58 57 58 60 59 58 60 59
33 36 35 35 36 40 38 37 37 38 37 37 38 39 41 42 43 44 45 47 47 47 48 48 49 51 52 52 52 51 52 51 50 51 52 54 57 57 58 59 59 55 59 57
36 38 37 36 37 37 37 35 37 37 37 38 37 39 41 42 44 45 48 49 47 46 48 48 49 49 50 51 51 52 51 50 50 52 53 53 55 57 57 57 56 53 54 53
36 36 35 37 38 37 34 38 37 38 36 35 36 37 40 42 44 46 51 51 45 46 47 49 49 50 49 50 50 51 50 49 51 53 53 53 52 57 57 57 56 54 56 52
37 35 34 34 36 37 36 37 38 39 36 36 35 37 40 42 44 49 52 53 50 45 47 48 49 50 48 49 49 50 49 50 53 52 51 50 49 53 55 56 55 42 46 46

GFSCGP_sfc_dewp_021.txt.gz
Dewpoint
26 21 16 18 22 22 22 22 23 25 25 26 26 27 27 28 28 28 29 31 32 33 35 37 39 44 52 55 58 63 64 70 68 65 62 59 56 58 57 58 61 61 62 66
23 21 20 16 17 20 20 20 22 24 25 25 27 26 28 28 28 30 30 32 32 33 35 36 39 52 55 58 61 63 63 67 68 64 63 59 59 56 56 57 61 62 62 64
20 20 19 15 15 16 19 21 23 23 24 25 24 24 25 27 29 29 30 31 33 34 34 37 38 54 56 59 61 62 64 67 67 67 63 61 59 59 57 56 58 61 62 65
19 17 18 17 14 14 17 19 21 24 23 20 22 19 25 26 27 28 29 31 33 33 35 36 39 54 57 58 60 62 65 65 64 66 65 66 58 54 54 58 56 60 61 61
16 17 16 17 16 15 15 16 19 22 22 22 19 17 21 24 26 27 30 31 32 32 33 34 45 54 56 58 60 63 64 64 65 64 66 59 60 54 56 56 60 64 63 63
14 16 16 16 16 15 15 14 18 22 20 19 21 18 20 22 26 28 29 29 31 32 33 39 51 54 56 57 60 62 63 63 63 62 62 63 62 59 57 58 61 64 67 65
13 15 16 16 15 17 16 19 15 20 18 20 19 19 23 27 28 28 29 29 29 35 41 47 51 52 55 57 59 60 61 62 62 61 61 61 62 62 62 61 63 63 63 65
9 7 14 18 15 16 18 19 15 18 17 15 19 20 22 27 26 27 29 30 37 42 45 49 51 53 54 56 58 58 60 60 60 60 60 61 62 60 61 62 59 65 61 65
27 7 7 16 17 16 17 16 19 19 18 14 18 23 26 28 28 25 27 29 38 45 49 50 51 53 54 56 57 59 59 59 58 58 60 61 62 61 62 62 63 62 63 60
34 22 8 13 16 16 17 17 16 18 18 19 17 22 23 25 24 26 31 31 39 47 48 49 51 53 54 56 58 59 58 58 56 59 59 59 61 62 61 61 60 64 61 58
31 36 26 12 19 15 13 14 18 21 16 17 19 19 29 27 27 29 32 36 44 47 47 49 50 52 53 55 56 58 56 55 56 58 58 62 61 62 61 61 60 62 61 60
29 35 30 19 17 16 15 17 21 19 22 17 18 19 25 28 29 29 31 39 45 46 46 47 49 51 53 54 55 56 54 53 55 56 57 58 61 62 62 63 63 60 60 58
36 32 26 31 27 18 15 16 22 26 26 22 15 19 27 30 33 33 36 41 44 45 45 47 49 50 52 53 54 52 52 51 53 54 55 61 61 63 62 63 64 59 58 57
39 34 29 33 27 16 17 15 19 25 22 21 17 21 22 29 32 34 40 43 43 45 46 47 48 49 51 52 51 49 49 50 52 53 54 59 62 62 61 63 63 58 57 57
39 30 28 32 35 30 16 15 18 21 22 21 20 18 24 31 33 37 41 42 43 43 44 47 48 49 51 51 50 48 49 49 52 51 55 61 61 62 60 62 62 62 60 61
37 34 26 31 35 32 16 15 17 20 21 20 18 20 24 30 27 30 33 39 42 43 43 46 47 49 50 50 47 47 49 50 51 52 56 58 57 57 61 61 61 63 62 61
33 34 33 31 32 28 20 19 16 17 21 20 16 20 21 22 25 30 35 35 40 42 44 46 48 50 51 49 48 47 48 49 51 52 55 55 56 56 57 57 58 59 63 63
30 33 35 31 31 24 22 22 17 18 21 22 20 21 22 29 33 32 33 40 36 42 44 47 48 51 52 49 47 47 48 48 49 52 53 54 54 55 57 57 58 61 65 63
27 30 32 33 33 27 24 25 23 20 26 34 29 23 30 34 34 34 43 44 46 45 46 48 49 52 52 49 48 46 47 46 47 50 53 53 54 56 59 59 61 65 65 65
26 32 34 33 31 32 40 34 34 35 34 38 37 36 38 38 29 42 46 45 47 50 47 49 50 52 52 50 49 47 47 45 47 49 52 52 54 56 59 61 63 63 65 64
32 35 31 30 31 37 39 35 34 28 38 41 41 41 41 41 43 47 46 46 47 48 47 50 51 52 53 50 49 47 47 45 46 48 52 53 56 57 60 61 63 64 63 64
34 33 31 32 33 35 38 38 35 41 42 42 42 42 42 43 44 45 45 46 46 47 48 49 50 52 54 50 49 47 48 46 45 47 51 54 57 56 58 61 61 62 65 64
36 37 35 37 35 42 38 40 41 42 40 40 41 41 42 43 44 45 47 47 47 47 48 48 50 53 53 50 49 48 48 45 45 47 52 55 57 56 59 60 60 58 61 60
39 40 37 38 39 38 37 38 39 40 40 41 39 41 41 43 44 46 48 48 48 48 47 48 49 51 53 51 49 48 47 45 44 48 52 55 56 56 58 56 55 54 55 54
39 39 39 38 39 38 35 38 38 39 40 40 40 40 40 41 43 45 47 50 50 49 48 48 49 51 52 51 49 47 46 44 47 50 50 53 55 57 57 56 52 50 57 51
37 38 38 37 41 40 39 39 38 39 40 40 40 41 41 41 42 44 46 50 52 52 50 47 50 51 52 50 48 46 45 45 49 52 49 49 50 55 54 54 55 44 45 45

GFSCGP_sfc_dewp_024.txt.gz
Dewpoint
20 21 19 19 20 19 21 23 22 25 25 26 28 29 28 31 30 31 33 34 36 38 42 45 48 52 57 61 65 69 71 73 70 69 68 67 64 65 65 66 66 66 66 66
19 20 23 19 17 16 15 18 20 24 23 25 25 26 29 31 32 32 33 35 36 38 39 43 49 53 62 64 66 69 70 71 70 70 69 66 65 62 63 65 66 66 65 66
19 18 20 20 17 15 16 17 21 21 21 22 25 25 29 28 30 31 31 33 35 37 38 41 44 58 61 63 66 67 68 71 70 70 69 70 66 67 64 66 65 65 65 65
16 19 15 18 18 16 17 16 16 19 20 20 23 21 29 29 28 29 30 32 35 36 38 40 45 59 61 62 64 66 68 69 69 69 67 66 63 63 64 63 65 65 65 64
7 15 17 15 16 18 17 16 16 17 19 23 21 22 25 27 24 26 30 32 35 37 38 40 44 59 59 62 63 66 68 68 68 68 67 66 66 65 66 64 66 67 67 65
9 6 9 16 14 16 18 16 17 18 18 19 22 22 22 24 26 27 30 32 34 35 36 40 55 58 59 61 63 66 66 67 66 68 68 67 66 66 65 64 65 66 67 67
17 10 8 7 14 16 16 23 17 18 16 17 20 19 24 28 25 28 31 32 34 36 36 53 55 56 58 60 63 64 64 64 65 66 66 67 67 66 65 65 64 65 66 65
27 24 10 10 13 16 17 22 16 16 15 15 18 19 21 27 27 29 26 32 34 40 49 53 54 56 57 60 62 62 63 64 64 64 64 66 67 65 66 66 66 64 64 65
26 23 21 9 13 15 16 16 19 19 17 13 16 22 26 27 28 29 26 33 42 46 51 52 54 56 58 60 61 62 62 62 62 63 65 66 66 66 65 66 66 65 65 64
24 23 23 25 11 14 17 16 17 19 18 19 17 19 19 28 30 29 29 36 46 50 50 52 53 57 58 59 62 62 62 61 62 62 64 63 62 64 65 63 65 64 64 62
23 27 24 26 25 10 16 15 17 22 18 18 19 18 35 32 30 33 34 35 48 49 50 52 53 56 57 58 59 61 60 60 60 62 63 64 64 64 63 63 62 64 64 61
29 30 26 25 27 8 17 17 21 19 22 20 19 19 32 35 30 36 34 39 47 49 49 50 52 54 55 57 58 59 59 57 59 60 62 64 64 64 64 63 63 63 63 62
36 33 26 26 26 30 19 18 22 27 30 25 17 20 30 29 32 32 40 44 47 48 49 50 52 53 54 56 57 56 56 55 56 57 61 62 65 65 65 63 63 62 63 61
36 34 28 27 31 35 28 17 19 25 22 22 21 25 27 29 31 35 44 47 46 47 49 49 51 53 54 55 55 53 53 54 55 56 60 63 64 64 64 63 64 62 60 59
39 33 31 26 33 38 37 32 14 18 23 22 23 23 25 32 34 41 46 45 45 45 47 50 51 52 54 55 53 51 51 53 55 56 61 62 64 63 62 62 63 63 62 61
39 34 32 28 26 32 35 32 27 15 19 22 24 25 33 37 37 40 43 43 43 45 46 48 50 52 53 53 50 51 52 52 55 59 60 61 61 61 62 62 62 63 62 62
29 32 34 26 23 33 31 29 26 19 22 24 22 30 35 32 34 40 42 43 44 45 46 48 50 52 54 52 52 52 52 52 54 58 58 58 58 60 61 61 62 63 63 62
27 29 35 32 34 26 26 28 26 20 24 25 27 31 32 33 37 38 42 45 46 45 47 49 50 54 55 52 50 52 51 51 51 57 56 55 55 56 59 61 61 63 64 63
26 28 31 32 32 30 32 39 33 29 33 37 35 34 34 33 43 46 46 45 48 52 49 50 52 55 55 52 51 50 50 50 50 52 54 53 56 58 58 61 62 64 63 63
24 30 34 33 30 33 39 39 40 37 35 40 40 40 40 36 33 44 47 46 48 51 53 50 52 55 55 54 52 52 50 49 50 51 53 54 58 60 61 63 64 65 65 65
30 34 31 30 32 35 40 41 40 34 40 42 42 42 43 42 44 47 46 47 49 50 51 52 54 55 56 55 53 51 50 49 50 51 53 55 60 61 63 65 65 66 65 64
35 35 32 33 31 31 40 40 39 44 47 42 42 43 43 44 44 46 46 47 47 47 49 51 53 56 56 54 52 51 52 50 49 52 53 57 61 59 61 64 66 65 65 63
34 37 35 37 35 40 44 40 41 42 42 40 41 42 43 44 45 46 47 47 47 47 48 49 52 56 55 53 52 52 54 50 48 52 57 59 59 60 62 63 64 62 64 62
38 39 37 38 39 40 43 40 39 41 42 42 40 41 42 43 44 46 48 49 48 48 47 50 52 55 55 53 52 53 51 48 48 54 59 59 59 61 61 60 61 60 61 60
38 38 38 38 39 40 41 41 39 39 40 40 41 41 41 41 43 44 46 49 50 49 48 50 52 54 55 53 51 52 49 48 52 55 58 59 58 60 61 59 57 58 58 56
38 37 37 37 39 39 38 40 39 38 39 40 40 41 42 41 42 44 45 48 51 52 51 49 53 55 55 52 51 50 48 49 54 55 56 56 56 58 57 57 56 43 45 43

GFSCGP_sfc_dewp_027.txt.gz
Dewpoint
18 17 18 18 20 23 21 25 24 25 26 26 25 26 27 28 30 29 28 32 32 37 38 39 44 45 45 57 61 63 66 69 69 68 67 66 64 62 62 64 62 65 64 64
22 15 17 21 20 20 21 18 17 21 24 23 24 25 26 27 27 27 29 30 35 37 37 39 43 45 55 56 62 65 69 68 68 67 67 65 62 62 61 61 62 62 63 63
19 22 18 18 20 19 17 17 16 16 19 19 20 21 22 24 28 29 31 32 35 37 37 38 37 51 58 61 63 65 67 68 68 67 66 64 61 61 60 61 62 62 62 63
10 15 22 18 16 19 17 17 17 17 17 16 21 18 20 22 25 27 26 30 32 32 36 36 36 57 59 62 63 64 67 67 67 66 63 61 59 59 59 59 61 61 62 63
8 9 12 16 17 17 18 20 17 19 16 17 18 19 18 26 27 28 29 30 33 35 37 37 39 58 60 61 63 66 66 66 65 63 62 60 57 59 60 62 61 62 62 62
18 13 8 7 7 16 16 19 19 18 16 15 16 17 16 19 22 27 29 30 29 31 35 43 57 59 60 62 65 65 65 64 63 62 62 59 59 60 59 61 61 61 62 62
25 24 14 10 7 7 13 14 15 16 15 15 15 18 18 25 26 26 27 29 32 36 47 55 57 58 60 62 64 64 63 62 62 64 61 62 59 60 60 60 60 61 61 61
19 17 24 23 9 7 8 14 14 14 15 14 16 16 18 23 24 25 25 28 42 52 53 55 56 57 60 62 62 62 62 62 62 60 61 61 60 60 62 60 60 60 60 61
25 21 26 23 22 10 7 8 15 14 19 14 15 15 17 18 19 27 28 31 50 52 53 55 55 58 60 61 61 62 61 61 61 60 62 61 61 61 61 61 61 61 61 60
23 20 19 18 20 21 22 12 16 13 14 15 16 16 17 22 22 23 32 41 50 51 53 54 56 58 59 60 61 61 61 60 60 61 61 61 61 61 61 60 60 60 60 61
25 25 20 20 19 20 23 11 13 16 14 15 17 17 22 26 27 27 34 47 49 50 52 54 56 57 58 60 60 60 60 60 59 60 60 60 59 61 59 60 61 59 58 61
32 34 30 25 23 22 23 24 14 15 16 16 19 20 27 36 34 33 43 47 48 50 51 54 55 56 57 58 59 59 59 58 58 60 61 61 61 60 60 60 61 59 57 58
34 31 26 24 24 24 24 27 18 19 24 15 17 16 20 24 33 35 45 47 48 50 51 53 54 55 56 57 57 58 57 56 58 60 60 62 61 61 60 59 60 59 59 59
36 30 28 26 28 31 33 34 33 21 19 18 18 18 19 22 30 43 46 47 48 48 51 52 53 54 55 56 56 55 55 56 56 59 60 61 61 61 60 59 59 59 59 57
37 33 31 32 31 30 32 31 29 30 22 20 19 21 22 31 43 45 45 46 47 48 50 51 52 53 54 55 53 53 53 54 55 59 61 62 61 61 60 60 59 60 59 59
39 34 34 32 30 30 30 27 28 30 32 24 16 19 28 33 44 44 44 45 46 47 49 50 52 53 54 53 51 51 52 53 59 60 61 61 61 60 59 59 59 59 59 60
33 32 31 27 28 31 27 24 24 29 32 31 16 20 37 40 43 43 43 44 45 46 48 50 51 52 53 50 49 51 52 54 58 59 61 60 60 60 59 60 59 59 59 60
26 27 33 32 32 22 25 36 32 31 32 40 24 24 40 44 47 48 45 46 45 47 48 49 51 53 52 51 50 52 51 53 57 57 58 59 59 59 60 60 59 59 59 60
28 27 29 32 30 29 34 39 39 39 43 45 41 45 48 45 46 49 49 51 49 49 48 50 53 52 51 49 51 50 50 50 55 55 55 55 57 58 59 60 59 60 60 60
26 29 32 34 29 28 35 38 42 42 41 48 44 44 48 45 44 46 50 50 49 49 51 52 53 51 50 49 50 50 49 49 50 54 54 55 55 57 59 59 59 60 61 60
33 35 31 31 31 34 39 40 42 37 41 48 44 44 45 45 44 44 49 49 49 49 51 53 52 50 50 48 50 49 48 48 50 53 55 56 58 61 61 61 61 61 60 60
33 32 32 33 30 30 40 41 39 45 48 49 43 43 44 47 46 47 48 48 49 50 49 53 52 52 51 49 49 50 48 48 50 52 57 59 60 61 62 61 62 61 60 59
33 36 33 36 34 40 42 44 46 47 47 42 43 43 44 45 46 47 49 49 49 53 53 52 54 52 51 49 48 50 48 49 51 54 58 59 59 61 62 62 61 61 60 60
37 39 37 38 39 41 43 45 46 45 41 40 41 43 43 43 44 45 47 48 51 53 53 55 54 51 51 49 49 50 51 48 51 57 57 58 59 60 61 62 61 61 60 59
37 38 37 36 39 40 41 43 44 39 40 40 40 41 43 42 43 44 44 45 47 48 51 54 54 52 51 50 50 53 49 48 53 56 56 58 59 59 59 57 57 60 60 59
39 37 36 34 40 39 39 42 43 37 38 40 39 41 43 44 43 44 44 46 47 48 51 52 55 54 51 50 49 51 48 49 54 57 56 57 59 59 58 52 50 44 43 43

GFSCGP_sfc_dewp_030.txt.gz
Dewpoint
18 13 12 16 19 21 24 24 24 27 26 26 25 26 27 28 29 30 31 31 32 34 35 37 40 40 43 46 47 55 64 65 67 66 66 65 62 62 62 64 65 65 64 64
16 14 14 15 19 20 20 21 22 22 21 25 26 25 26 27 27 28 28 30 31 31 34 38 40 42 48 53 58 59 64 67 67 66 65 64 62 61 61 62 64 65 64 64
17 22 19 16 16 18 19 18 20 21 20 18 17 16 18 20 24 25 28 30 32 32 33 37 38 42 51 56 61 64 66 67 67 66 64 61 60 60 59 59 60 62 63 63
11 12 11 16 17 15 17 21 20 19 18 15 17 13 15 16 18 21 23 27 28 28 36 38 38 51 55 60 64 66 66 67 66 66 63 60 59 58 58 59 60 61 62 62
11 11 12 13 15 21 15 19 22 21 19 17 17 19 14 21 20 21 22 23 25 29 32 33 36 52 59 62 63 66 66 66 65 64 62 59 58 58 58 60 60 61 61 62
13 13 10 9 8 9 10 19 18 18 19 16 16 15 13 15 17 23 25 26 26 30 30 48 51 59 61 63 64 65 64 63 62 61 60 58 58 58 60 59 60 60 60 61
22 25 26 23 13 12 10 10 14 15 16 16 16 16 16 21 22 23 22 25 28 29 40 57 58 59 62 63 64 63 62 62 61 59 59 59 59 59 59 59 59 59 60 59
21 19 23 25 25 11 8 9 15 12 16 14 16 16 16 19 18 18 22 25 33 48 54 57 58 61 63 63 63 62 61 61 60 60 59 59 59 59 60 59 59 60 59 60
23 21 24 23 20 20 18 7 9 12 14 16 17 18 21 17 17 17 17 33 51 54 56 57 60 62 62 62 62 61 60 60 59 61 60 60 61 60 59 59 59 59 59 59
26 21 22 20 19 20 21 23 11 13 12 12 17 18 16 19 21 23 22 47 52 54 55 58 60 61 61 61 61 61 60 59 59 60 60 60 60 61 60 60 59 59 59 60
29 27 23 26 21 16 18 21 15 15 14 12 16 17 21 20 21 21 25 48 52 54 55 57 59 60 60 61 61 60 59 59 59 60 59 60 60 60 59 59 59 59 59 60
34 31 28 23 23 24 24 20 23 17 11 17 17 15 21 22 24 32 39 50 52 53 55 57 58 59 59 60 60 59 59 58 59 60 59 59 60 59 59 59 59 58 58 59
34 28 23 20 25 27 27 28 33 27 21 15 15 16 18 22 24 43 48 50 52 53 55 56 57 58 59 59 59 58 58 57 58 60 61 60 59 59 59 59 58 57 57 57
39 31 27 20 23 28 31 32 31 30 23 16 14 17 17 18 21 43 47 50 51 53 55 55 56 57 58 58 58 57 56 57 59 59 60 60 59 59 59 58 58 59 58 59
35 31 30 31 31 31 30 30 30 29 28 28 24 25 21 18 22 38 47 49 51 52 53 54 55 56 57 57 57 56 55 56 58 59 60 60 60 60 59 59 59 59 59 59
37 31 35 30 31 30 31 30 30 28 27 28 30 30 28 23 38 46 48 48 50 51 52 53 54 55 55 55 55 54 54 54 59 59 60 61 60 59 59 58 59 59 59 59
34 34 30 25 31 30 28 29 29 31 28 31 28 29 34 46 48 50 49 48 50 51 52 52 53 55 55 54 53 52 53 58 60 60 60 60 60 59 58 58 58 58 59 60
28 28 30 28 31 23 34 39 40 38 28 41 44 43 44 49 50 52 53 48 49 50 51 52 53 54 54 52 51 52 57 59 59 60 59 59 59 58 58 58 58 57 58 61
29 27 27 28 30 30 36 37 39 40 40 46 46 46 47 50 49 50 54 53 48 50 51 52 53 54 51 50 50 52 56 57 57 59 58 59 58 59 59 58 58 58 58 57
27 28 30 30 27 27 35 37 38 41 39 46 46 46 46 48 45 48 52 54 49 49 50 52 53 52 50 49 50 51 55 56 56 56 57 58 58 59 59 59 58 58 60 59
34 33 30 29 30 33 37 38 41 38 41 46 46 47 48 47 48 48 54 54 51 50 51 53 52 50 48 50 49 48 51 53 55 55 55 56 58 58 59 59 59 59 59 59
32 31 32 34 30 28 38 38 39 42 46 47 46 47 49 51 51 50 52 54 54 51 52 51 50 48 48 49 48 48 48 49 51 54 55 57 60 59 60 60 60 59 58 58
32 35 32 34 33 39 39 42 46 46 46 45 47 44 48 50 49 48 52 54 55 55 54 52 50 49 48 48 48 47 47 48 53 55 57 59 60 61 61 60 59 58 58 58
37 39 36 37 39 38 43 44 46 46 46 46 47 42 43 48 48 47 49 48 51 54 56 56 54 50 48 48 48 47 47 50 56 56 57 59 60 60 61 61 60 59 58 58
37 37 37 35 39 41 42 44 46 46 46 44 42 42 44 45 46 48 47 47 49 51 52 57 53 53 51 48 48 49 48 54 57 57 57 59 60 60 60 58 58 60 59 58
37 37 35 35 40 40 41 44 45 45 46 45 42 41 44 44 43 46 46 48 49 49 50 53 55 55 53 52 50 51 48 55 56 56 57 59 59 59 58 54 51 44 45 43

GFSCGP_sfc_dewp_033.txt.gz
Dewpoint
17 12 14 18 20 21 21 23 25 26 26 25 24 25 26 27 28 28 28 29 29 31 35 35 36 39 42 44 44 47 54 62 64 65 64 64 64 63 63 65 65 65 65 65
16 14 17 16 18 19 19 19 20 24 24 22 24 24 24 27 28 28 29 30 31 31 31 33 36 39 41 41 45 45 53 63 64 64 65 63 62 61 63 64 65 65 64 64
15 17 18 14 15 14 17 19 20 21 24 21 21 19 20 20 22 24 29 30 31 32 30 33 33 38 41 45 50 54 58 64 65 64 62 61 60 60 60 61 62 63 64 63
14 14 12 12 15 12 11 20 20 22 20 18 18 15 16 16 16 18 20 22 24 28 31 35 35 36 41 45 59 62 64 65 65 64 61 60 58 58 58 59 60 62 63 63
14 13 12 10 11 15 17 15 17 21 20 19 19 17 12 16 14 14 15 17 19 20 25 28 29 36 46 59 62 64 65 65 64 63 61 59 58 58 58 59 59 60 61 62
19 15 13 11 11 10 12 13 17 16 19 17 17 17 14 13 13 15 23 26 27 27 30 31 37 43 57 62 64 65 64 63 63 61 60 59 58 58 58 58 59 59 59 61
25 16 19 14 12 16 11 10 14 15 15 14 17 17 15 20 23 23 22 24 25 25 28 37 53 57 60 62 63 64 63 61 61 60 59 59 58 58 58 58 58 58 59 59
26 21 25 27 21 20 12 10 12 11 15 12 16 16 16 20 19 19 19 20 23 27 37 44 56 59 62 62 62 62 62 59 59 59 58 59 59 59 59 58 59 59 59 59
26 20 23 23 21 20 19 9 10 7 12 11 16 18 19 18 18 20 19 20 23 37 54 56 59 61 62 61 60 61 60 59 59 59 59 59 59 59 59 58 59 58 58 59
26 21 24 23 20 20 18 21 8 10 8 11 15 17 17 18 12 20 23 23 32 53 56 59 60 61 61 61 60 60 59 59 59 59 60 60 59 59 58 58 58 58 58 59
28 26 24 24 20 14 17 20 19 11 11 13 13 17 23 21 21 22 23 24 45 54 56 59 60 60 60 60 60 58 58 59 59 59 59 59 59 59 59 59 58 58 58 59
32 29 26 23 22 22 22 20 22 17 13 13 16 14 18 19 19 21 25 37 53 55 57 59 59 60 60 59 59 58 58 59 59 59 59 59 59 58 58 58 58 58 58 59
34 27 23 19 26 28 26 25 24 26 23 20 12 13 17 20 21 38 49 51 53 56 57 58 59 60 60 59 58 58 57 58 59 59 58 58 58 58 58 58 58 57 58 57
36 32 26 22 22 26 26 27 33 31 26 22 19 18 17 18 30 27 41 51 52 56 57 58 58 59 59 59 58 58 57 58 59 59 59 58 58 58 58 58 57 56 57 57
34 29 29 29 30 31 31 30 29 30 30 27 26 27 21 29 29 30 36 51 53 55 56 57 57 58 58 58 58 57 56 57 59 60 59 58 58 58 58 57 57 58 58 58
34 28 31 29 31 30 31 31 31 30 30 29 28 26 28 30 35 45 45 51 53 54 55 56 57 57 57 57 57 56 55 56 59 60 60 60 60 59 58 57 58 58 59 60
33 30 27 23 23 31 27 30 29 30 29 27 27 30 36 41 47 51 49 50 52 53 54 55 56 56 57 57 56 55 55 56 58 60 60 60 59 58 58 57 58 59 59 60
28 29 29 27 29 20 30 39 33 31 31 32 35 42 46 45 49 51 53 50 52 53 54 55 55 56 56 56 55 54 55 58 59 60 59 59 59 58 58 57 57 56 58 59
31 29 28 26 27 31 32 37 37 35 37 44 44 45 47 49 47 48 54 54 53 52 53 54 55 55 55 53 53 54 57 58 59 59 58 59 58 57 58 57 56 56 57 56
32 30 29 29 24 24 36 37 38 39 33 44 44 45 46 47 42 46 52 54 55 53 53 53 55 55 53 52 52 55 56 57 58 59 58 58 57 58 58 57 57 57 57 57
34 33 28 28 27 33 37 37 37 33 36 44 46 46 46 46 47 51 54 55 56 54 52 53 54 53 52 51 52 54 56 56 57 58 58 58 57 58 58 57 57 58 58 58
31 30 32 32 29 27 38 35 38 42 45 47 45 46 47 49 51 54 55 55 55 53 52 53 53 52 50 51 51 53 55 55 56 56 56 56 57 58 58 58 58 58 58 57
31 34 31 32 32 36 37 37 44 47 46 46 46 46 47 48 48 50 52 52 54 54 53 52 51 49 49 49 49 50 52 51 55 55 56 58 58 59 59 58 57 56 56 57
36 39 36 36 38 39 42 43 44 46 46 48 48 46 47 47 48 48 52 52 53 56 55 53 50 48 49 49 48 49 49 51 55 55 57 59 59 58 59 59 58 57 56 57
36 37 36 36 38 40 41 44 46 45 47 47 46 46 47 46 47 48 49 51 52 53 56 54 50 50 50 49 48 48 49 55 55 56 58 59 59 59 58 57 56 58 57 57
36 37 36 35 38 40 41 45 47 46 47 48 44 42 43 45 46 47 49 52 53 54 51 54 53 52 52 50 49 49 51 56 56 56 58 59 59 59 58 55 53 41 46 49

GFSCGP_sfc_dewp_036.txt.gz
Dewpoint
19 14 14 18 21 22 21 21 24 26 28 26 25 25 26 27 28 28 28 29 30 31 32 34 39 40 42 44 46 47 48 57 64 64 63 63 64 64 65 65 65 65 65 65
17 14 17 18 20 20 20 20 19 22 23 23 23 22 23 24 25 27 28 29 31 33 34 36 37 38 41 43 44 46 49 59 64 64 64 64 64 64 64 65 66 66 66 65
16 16 17 15 15 15 18 19 20 21 22 22 22 21 22 24 23 22 23 25 28 31 32 33 35 37 38 41 44 47 50 60 63 63 62 61 61 61 62 63 64 65 65 65
16 16 15 13 14 15 13 19 21 23 21 18 20 17 19 19 20 21 21 22 24 27 31 32 33 35 36 37 45 54 58 62 63 63 62 62 61 61 61 62 63 64 64 64
19 12 13 12 12 15 15 15 15 21 20 18 18 16 14 17 16 17 17 17 18 19 22 26 30 33 33 40 55 61 63 64 64 63 62 61 60 59 59 60 61 62 62 63
30 24 14 13 13 13 16 18 17 16 19 15 17 16 14 12 12 13 18 20 22 22 24 27 30 34 40 56 62 63 63 62 62 62 61 60 59 59 59 59 60 60 61 62
29 25 23 15 12 15 10 12 12 13 14 9 15 16 14 17 19 22 23 24 25 26 26 27 30 47 55 61 62 63 62 61 61 60 60 60 59 59 59 59 59 59 60 60
30 20 19 24 14 12 12 10 12 12 14 13 14 17 17 20 19 20 21 22 23 23 25 28 37 54 60 61 63 62 62 60 60 60 59 60 60 59 59 59 60 59 60 61
29 25 31 28 27 20 18 11 14 7 12 7 15 16 19 19 17 20 21 22 23 25 29 50 58 60 61 62 62 61 60 59 59 59 59 59 59 59 59 59 60 60 60 60
28 22 26 27 30 26 18 16 8 8 5 9 13 15 15 18 18 23 22 24 26 28 53 57 58 59 60 60 60 59 59 59 59 59 59 59 59 59 59 59 59 59 60 60
30 26 23 24 20 14 16 18 17 11 11 12 12 14 22 21 22 22 27 38 40 41 55 57 58 60 59 60 59 59 59 59 59 59 59 59 59 59 59 59 59 59 59 60
33 30 26 23 23 26 22 19 21 17 14 11 14 12 18 21 24 27 30 41 53 53 56 57 58 60 59 58 58 59 59 58 59 59 59 59 59 59 59 59 59 59 59 60
33 28 23 19 25 27 26 26 23 23 23 20 12 11 19 20 25 28 27 42 54 55 57 57 59 60 59 58 58 58 58 59 59 59 59 59 58 58 58 59 59 59 59 60
35 30 26 19 21 26 26 28 29 30 25 17 17 19 20 21 26 27 27 40 53 56 57 57 59 59 59 58 57 58 58 59 59 59 58 58 58 58 59 59 58 58 59 58
33 29 29 29 29 29 30 29 29 28 28 28 27 27 28 28 28 28 32 45 54 56 57 57 58 59 58 58 57 57 58 59 59 59 58 58 58 58 58 58 58 58 58 59
36 30 29 26 28 30 29 28 29 29 30 30 30 30 31 29 30 39 42 49 54 55 57 57 58 59 58 58 57 57 57 58 59 59 58 59 59 59 58 58 59 59 60 61
35 33 25 21 24 28 23 26 29 28 29 29 28 29 28 37 40 41 44 50 53 55 56 57 58 58 58 58 57 56 56 58 59 60 60 60 59 59 58 58 58 59 60 61
33 32 29 24 26 18 24 38 37 28 28 30 29 28 37 45 47 48 52 52 53 55 56 57 57 58 58 57 56 56 56 58 59 60 60 60 59 58 58 58 59 59 60 60
32 28 26 23 24 27 27 35 36 34 33 35 40 41 45 47 48 48 53 54 53 55 55 56 57 57 57 57 56 55 56 58 59 60 59 59 58 58 58 57 57 58 59 58
34 32 28 28 23 20 34 34 37 38 31 44 44 44 45 46 43 46 51 53 54 53 55 55 57 57 56 55 55 56 57 58 59 59 59 59 58 58 58 57 57 58 58 58
32 32 27 27 26 30 37 37 37 33 33 44 45 45 45 45 46 48 53 53 55 55 54 55 56 55 55 53 55 55 57 57 59 59 58 59 58 58 58 58 59 59 59 59
31 29 30 30 27 25 36 36 36 40 41 45 45 46 46 46 48 52 54 54 54 55 53 55 55 54 53 53 55 55 56 57 58 58 58 58 58 58 58 58 59 59 59 58
30 33 31 31 32 37 37 37 39 41 43 46 47 47 47 47 48 51 53 53 54 56 54 54 54 53 52 53 54 55 55 57 57 58 57 58 58 59 59 58 58 58 58 58
35 39 35 35 37 39 40 42 43 46 45 48 48 48 48 49 49 51 53 53 54 56 56 55 53 51 51 52 53 54 54 55 56 57 57 58 58 58 59 59 58 58 58 57
36 36 36 36 38 40 41 42 45 45 48 48 49 50 50 48 49 52 53 53 54 55 56 54 52 51 52 51 51 52 52 55 56 57 58 59 58 59 59 58 57 58 58 57
36 37 36 35 40 41 41 45 46 45 48 48 47 48 49 46 48 49 51 53 55 56 56 53 52 53 52 51 50 50 52 55 56 57 58 58 59 59 59 57 54 42 46 47

GFSCGP_sfc_dewp_042.txt.gz
Dewpoint
19 17 11 12 12 10 12 14 17 17 19 19 22 24 25 28 28 29 30 33 34 35 36 38 41 43 46 51 58 62 61 67 62 56 58 60 61 64 64 65 68 68 68 68
18 16 16 14 13 14 13 17 19 21 22 23 23 24 25 26 27 28 30 31 33 34 35 37 40 43 47 53 57 62 63 65 63 58 62 60 62 62 64 66 68 68 68 68
16 15 15 16 15 14 14 15 16 17 19 23 24 24 25 26 28 29 31 32 33 34 35 37 38 42 43 49 57 59 62 63 64 64 64 66 66 66 65 66 67 68 69 68
19 17 17 15 16 16 14 12 13 17 20 17 23 18 22 23 25 26 27 29 30 32 33 34 37 39 43 44 47 55 60 61 61 66 67 70 64 63 64 65 67 68 68 68
17 16 17 19 17 15 14 14 13 17 18 20 19 17 19 23 22 24 27 28 29 30 31 31 31 34 35 39 43 51 56 59 63 66 68 66 67 64 65 65 68 68 69 68
21 23 23 22 23 21 17 13 14 14 16 15 18 18 17 18 20 22 23 23 26 25 25 28 33 35 36 37 43 49 55 62 65 67 68 69 68 67 65 68 67 67 67 68
21 21 28 32 27 22 16 14 11 10 10 11 15 15 19 21 20 19 20 22 25 28 29 29 32 32 37 41 47 55 61 65 67 67 67 68 69 70 70 69 66 67 65 65
28 21 27 36 34 22 17 15 11 8 7 7 10 11 14 19 20 21 20 26 27 30 35 39 40 39 37 41 53 60 63 65 66 67 68 69 70 67 68 68 66 64 64 63
25 21 23 31 32 28 23 20 17 13 16 14 4 12 16 17 21 22 22 24 34 39 44 48 48 48 49 53 60 62 64 66 67 68 68 69 69 69 67 69 68 62 65 64
25 26 23 30 29 25 20 19 17 12 18 10 6 10 10 16 17 17 26 29 31 38 48 51 51 56 57 59 63 65 66 66 67 67 67 67 67 67 68 66 64 65 66 65
25 26 22 22 25 22 23 17 28 26 20 11 5 7 18 21 26 30 28 29 32 44 53 55 58 60 62 63 63 66 66 66 66 66 66 66 66 65 65 65 65 66 66 65
29 29 22 19 21 21 26 26 32 28 21 16 17 15 26 29 28 29 29 30 31 42 55 57 59 62 62 62 63 64 65 64 65 65 64 64 64 64 65 65 65 65 63 61
34 29 22 16 25 26 21 21 21 25 26 28 15 11 27 26 22 26 29 30 30 32 50 58 60 61 61 62 63 63 63 63 62 61 62 63 64 64 64 64 64 62 61 60
37 32 26 22 18 20 19 21 21 22 21 17 15 18 19 22 22 25 29 32 28 29 42 58 59 60 60 61 61 61 61 61 60 59 60 62 62 62 63 63 62 61 60 60
37 31 26 24 23 21 19 18 18 19 19 18 17 18 19 22 24 27 32 31 26 27 36 56 58 60 59 60 60 59 59 58 58 57 58 60 62 62 62 61 61 60 61 60
37 33 29 26 23 22 20 19 19 18 18 19 19 20 21 22 21 22 25 26 26 29 34 55 59 60 60 59 58 58 58 57 56 55 57 59 60 60 61 61 60 61 60 60
37 33 28 22 20 20 19 17 17 17 17 17 17 21 24 23 22 24 26 27 30 33 37 54 59 60 60 58 59 58 57 54 54 56 58 58 59 59 59 58 59 59 61 63
35 34 31 26 26 21 18 25 28 29 28 28 27 27 28 26 26 24 24 28 35 37 41 55 60 60 60 59 58 58 54 52 54 55 56 57 57 57 57 57 58 61 63 64
37 35 29 27 26 22 23 26 30 34 32 34 33 30 30 30 27 28 30 33 39 41 49 56 61 60 59 59 58 56 52 52 53 54 56 56 56 57 56 56 59 62 62 62
38 37 34 30 27 23 31 38 38 37 32 41 41 40 35 30 24 24 35 50 52 53 55 58 60 59 59 59 58 54 53 53 53 53 55 56 55 57 57 59 60 61 63 62
35 34 30 28 30 28 32 38 39 31 32 40 41 42 43 37 35 40 44 49 52 55 58 60 60 58 59 59 56 52 53 54 54 55 55 55 57 58 59 60 61 61 62 61
33 33 34 35 30 29 39 37 35 39 41 39 41 42 43 45 43 43 45 49 51 55 58 59 58 58 58 58 53 50 55 55 55 55 54 56 59 56 58 61 62 61 62 62
34 36 33 33 35 40 41 39 40 41 39 40 42 44 44 45 44 45 47 49 52 57 59 57 56 57 57 55 51 53 55 55 55 55 56 57 58 58 60 62 62 61 62 61
34 37 36 35 37 39 41 42 42 43 43 44 47 46 46 46 46 47 49 51 54 56 57 57 56 56 55 52 52 55 55 55 55 56 57 58 58 58 59 59 62 63 63 61
37 38 36 37 39 40 40 42 43 44 45 47 48 48 49 48 48 49 51 53 54 55 56 56 56 54 53 51 51 55 55 55 56 57 58 58 57 59 59 61 61 62 64 61
35 36 37 36 40 41 40 43 44 44 45 47 48 48 50 50 51 53 53 57 57 56 56 56 54 52 50 49 50 53 54 55 57 58 57 55 55 57 57 58 58 43 44 45

GFSCGP_sfc_dewp_045.txt.gz
Dewpoint
18 15 15 16 14 12 11 9 7 9 10 13 15 17 19 22 25 26 30 32 36 37 36 38 41 43 45 56 60 64 63 68 64 55 54 54 55 60 62 64 68 68 69 69
15 13 15 14 14 14 12 11 12 11 10 15 20 19 20 21 23 25 27 30 33 34 35 38 42 45 52 55 60 62 65 67 68 59 63 56 60 57 61 64 69 69 68 70
15 14 14 13 12 13 14 14 13 13 15 17 19 21 23 24 22 24 26 29 30 33 34 37 39 47 48 53 58 59 64 67 69 68 63 66 65 66 62 65 67 68 68 70
13 12 13 14 12 12 13 14 13 12 12 11 16 15 22 23 24 26 27 28 30 32 34 37 41 45 49 48 49 57 62 66 67 71 65 70 63 62 64 66 66 68 69 69
11 12 12 12 13 16 15 14 14 14 13 14 12 13 17 20 22 23 26 26 28 30 31 31 32 37 37 43 47 55 60 65 67 69 68 62 68 63 64 64 70 70 70 69
16 26 20 20 29 23 18 18 18 14 12 9 12 13 14 17 20 22 23 25 27 27 29 31 33 34 35 35 38 51 59 64 66 67 70 72 71 70 65 68 67 68 68 69
17 17 30 30 25 27 23 22 16 10 9 8 11 10 16 20 21 22 22 23 25 25 26 27 29 28 34 37 40 44 53 59 64 65 67 69 73 74 73 69 67 68 67 67
22 20 19 23 26 24 29 23 12 7 6 6 18 13 10 20 22 22 22 24 25 26 27 29 31 33 36 39 42 47 53 60 64 66 67 70 71 67 68 69 68 67 66 67
23 21 21 19 25 26 23 21 20 13 14 12 20 20 22 16 20 21 23 25 27 33 37 40 42 43 44 41 45 52 58 62 65 66 68 69 70 72 68 73 73 68 69 68
21 21 19 20 26 24 25 23 28 17 14 10 12 14 14 16 17 20 23 26 31 33 37 43 45 46 50 48 55 61 63 65 66 67 68 68 70 71 70 70 70 69 69 66
21 25 21 19 19 23 23 18 28 27 23 14 14 19 25 20 19 22 23 29 30 38 48 53 55 59 57 57 58 62 64 65 66 67 68 69 69 69 68 66 65 66 66 64
26 31 23 17 16 22 22 20 22 30 25 18 15 21 28 32 24 23 29 29 31 32 52 57 58 61 60 59 61 62 64 64 65 66 67 68 67 65 66 65 65 65 64 63
35 27 25 17 18 32 31 26 20 26 28 27 24 25 35 31 29 28 30 31 31 32 46 58 60 62 58 59 61 61 63 63 64 64 64 65 65 64 65 64 64 63 62 61
37 32 27 25 20 27 27 26 24 21 21 17 15 19 32 35 32 25 27 32 30 30 40 57 60 61 62 60 59 61 61 61 62 61 62 63 64 64 63 63 62 61 60 59
36 34 29 25 21 20 18 15 12 14 15 16 17 16 19 32 32 31 27 28 26 27 33 57 59 62 62 61 61 59 59 59 60 59 60 61 62 61 61 61 61 60 60 60
36 32 30 25 22 19 17 15 14 14 13 14 13 14 16 21 21 22 24 23 24 28 32 54 59 61 61 61 59 58 58 57 58 57 57 58 58 59 61 62 62 60 62 63
36 34 28 23 20 18 14 14 13 14 14 13 11 14 16 18 21 25 26 25 25 27 33 44 59 61 62 61 59 57 57 55 55 55 55 56 57 58 60 60 58 62 64 63
36 36 34 26 26 20 18 23 24 25 26 26 27 25 26 26 25 25 25 25 26 29 36 47 60 62 62 62 57 57 54 53 53 53 53 55 55 56 58 57 60 64 63 65
39 36 33 31 29 24 24 28 33 30 32 31 30 31 29 31 30 30 28 28 30 35 46 53 61 62 63 61 57 55 52 51 51 52 53 55 54 57 56 58 62 62 63 65
39 38 34 30 28 25 28 38 38 36 30 39 39 39 41 39 32 26 29 30 45 50 55 59 61 61 61 60 56 54 50 51 50 52 55 55 54 57 57 61 62 62 62 63
34 36 32 30 31 30 39 39 39 32 30 40 39 40 40 40 43 46 42 43 45 50 56 59 61 59 60 57 56 51 51 51 54 54 55 55 59 59 60 62 64 63 62 63
35 33 34 34 31 30 39 39 34 38 41 41 41 41 41 43 43 44 43 43 45 55 55 59 60 60 57 57 54 51 52 55 55 55 54 54 59 55 55 62 61 61 64 63
34 37 34 34 36 40 42 41 43 43 41 41 41 42 43 43 42 42 43 45 50 55 55 60 60 57 56 55 52 52 54 56 56 56 54 57 59 58 59 60 61 62 63 64
34 36 37 37 34 38 41 43 42 43 43 44 44 45 46 43 43 44 44 48 56 55 59 59 55 55 55 53 49 53 54 55 54 56 58 58 59 59 60 60 65 65 65 64
35 36 37 36 37 40 41 41 43 44 44 44 47 48 45 44 46 46 47 54 55 57 59 59 54 54 53 49 50 53 53 56 57 58 58 59 57 59 60 62 61 64 60 62
36 35 38 37 40 39 41 44 44 42 42 45 46 48 48 48 48 49 54 56 58 59 59 58 54 52 48 48 50 52 52 55 55 58 57 57 55 56 56 58 59 44 44 43

GFSCGP_sfc_dewp_048.txt.gz
Dewpoint
18 14 14 15 17 15 14 12 11 11 10 10 11 14 17 21 23 24 27 32 35 38 41 44 46 49 51 64 66 67 68 69 70 70 66 65 64 65 66 68 71 72 72 70
15 13 14 13 13 13 13 13 13 13 12 13 14 12 16 20 20 24 28 30 32 36 41 41 43 54 59 64 65 67 67 69 71 67 67 65 65 62 63 68 71 72 72 71
13 13 12 12 13 13 13 12 13 13 13 13 13 14 19 17 22 25 27 30 32 33 35 42 46 53 57 61 63 66 67 67 67 67 67 69 68 69 69 71 72 71 71 71
14 12 10 10 11 12 12 10 11 12 13 11 13 10 19 19 22 26 27 29 30 32 36 38 44 51 57 58 60 64 67 67 67 70 67 68 63 63 66 70 71 71 71 70
13 13 14 15 16 20 19 17 17 15 16 14 12 11 13 17 18 22 28 29 31 33 35 35 37 43 46 48 52 58 63 67 67 67 67 65 67 67 72 71 71 72 72 70
16 15 17 24 27 23 22 19 18 19 16 13 14 12 12 13 18 19 24 27 29 31 31 33 37 39 41 44 46 55 60 62 66 68 69 69 69 67 68 68 70 69 69 69
12 12 21 31 27 29 18 20 24 13 11 14 15 11 15 18 17 19 22 25 27 30 30 34 35 35 41 44 46 54 62 64 67 67 69 68 67 70 73 71 69 68 67 68
18 15 19 26 26 24 20 20 24 20 12 10 9 8 13 25 26 21 21 26 27 29 30 32 35 39 36 42 49 50 59 62 65 66 66 69 69 69 71 69 68 67 67 68
14 14 14 13 15 24 19 19 27 29 24 18 11 10 13 19 22 24 22 25 30 33 35 37 37 48 50 51 58 56 60 61 62 63 68 69 71 72 71 71 69 68 69 69
20 19 19 17 17 24 25 24 22 25 17 17 12 9 8 20 31 24 23 28 31 34 34 37 38 45 50 51 58 61 63 64 67 68 69 70 71 72 71 72 70 70 70 69
21 24 23 24 18 14 17 19 24 33 27 18 12 13 25 31 37 38 35 26 31 32 33 42 47 58 56 56 53 64 64 66 67 68 69 70 70 71 71 70 69 69 69 68
28 31 25 20 20 22 26 27 30 29 22 20 21 20 29 37 37 38 38 38 33 35 34 51 54 56 59 59 59 62 65 65 67 68 69 69 69 69 68 68 68 68 67 66
36 27 25 18 16 33 30 27 25 26 30 26 23 19 33 39 40 39 43 42 34 32 32 55 55 56 57 58 58 62 65 65 66 67 67 67 67 67 67 67 67 67 66 66
36 31 28 25 22 27 28 26 24 24 25 18 17 20 27 35 37 38 40 44 32 29 32 55 57 61 60 58 59 61 63 65 65 65 65 66 67 67 67 66 66 65 64 63
35 34 29 26 23 22 19 21 15 17 20 15 12 13 17 31 34 36 37 35 29 26 30 55 58 62 61 61 62 63 62 64 64 63 64 65 66 66 65 64 64 64 64 63
37 33 31 28 25 19 17 15 12 11 12 12 10 12 20 22 29 29 27 26 23 24 27 44 57 60 61 62 62 61 61 61 62 61 62 63 62 62 63 64 64 65 63 63
37 35 30 26 24 20 22 20 21 23 21 26 22 27 31 30 25 27 27 26 27 26 28 38 54 59 62 62 61 60 60 60 60 59 59 59 59 59 62 62 63 62 63 65
38 36 35 29 28 22 19 23 28 29 29 28 27 27 30 30 30 28 29 30 28 28 29 46 55 60 62 61 61 59 58 57 56 56 55 56 58 59 60 61 62 63 65 66
39 36 33 30 29 27 26 33 35 34 33 34 35 34 34 35 35 31 36 34 30 35 49 55 59 62 64 63 59 56 55 54 53 53 54 57 58 59 60 60 63 65 65 65
39 39 35 30 28 25 36 38 39 38 31 39 39 37 38 38 34 37 45 46 34 51 56 57 59 61 63 63 58 56 54 53 52 52 54 56 56 59 60 62 63 64 65 64
36 36 32 31 31 31 38 39 39 31 32 40 40 39 39 38 40 43 45 46 46 52 57 58 59 60 61 62 57 55 54 53 55 54 54 57 58 58 62 64 65 64 64 64
36 34 33 33 29 28 38 38 35 38 40 41 40 39 39 41 40 42 43 44 45 49 55 57 59 60 61 61 56 54 55 56 55 55 56 59 60 57 60 64 64 64 64 63
34 36 34 35 37 38 42 42 43 44 41 42 40 41 41 42 42 42 44 43 44 53 57 58 59 59 60 57 55 54 57 57 56 57 57 59 60 58 61 61 62 64 64 63
34 35 38 36 37 39 40 41 43 44 43 43 43 43 43 44 44 42 43 44 48 54 58 58 62 60 57 55 55 58 57 56 56 57 59 60 60 59 61 62 65 64 64 64
34 37 37 37 38 40 39 41 41 41 42 42 42 43 46 47 46 45 44 48 53 57 58 60 60 56 54 53 53 57 56 57 58 58 59 59 59 61 62 57 57 63 57 60
38 40 38 37 41 38 39 41 41 41 40 42 43 45 46 48 48 46 48 53 57 58 59 60 56 55 51 49 52 56 55 58 58 59 58 58 58 61 60 59 57 42 42 43